sat.trackr.live / text

‹ back to catalog

STARLINK-3005

NORAD 48881 · 2021-059C

PAYLOAD ACTIVE UNKNOWN

§ Identity

Operator
Country
US
Launch date
2021-06-30
Launch site
AFETR
Launch vehicle
Mass (kg)
RCS (m²)

Purposes: comms

External: N2YO · Heavens-Above · Gunter

§ Orbital elements

Epoch: 2026-05-25T01:34:46.524864Z

Period
95.92 min
Inclination
97.6585°
Eccentricity
0.0001011
Mean motion
15.01258140 rev/d
Perigee alt
562.3 km
Apogee alt
563.7 km
Semi-major
6,941.2 km
B*
2.2453e-5
RAAN
270.5735°
Arg perigee
108.1740°
Mean anomaly
251.9594°
Rev number
27,026

§ Raw data

STARLINK-30051 48881U 21059C   26145.06581626  .00000229  00000+0  22453-4 0  99902 48881  97.6585 270.5735 0001011 108.1740 251.9594 15.01258140270263

JSON: /api/v1/satellites/48881 · /tle

For live sub-satellite position, see the globe view (requires WebGL).

§ Visibility from observer

Set your observer location to see the next 7 days of passes ≥ 10°. The values pass through the URL so the page stays shareable.

No JS? Fill the form by hand. The geolocation button needs JavaScript.